Time,TemperatureF,DewpointF,PressureIn,WindDirection,WindDirectionDegrees,WindSpeedMPH,WindSpeedGustMPH,Humidity,HourlyPrecipIn,Conditions,Clouds,dailyrainin,SoftwareType,DateUTC
2013-09-05 00:00:00,72.1,64.5,29.84,South,180,0.0,0.0,77,0.00,,,0.00,Wunderground v.1.15,2013-09-05 07:00:00,
2013-09-05 00:10:00,71.5,64.3,29.84,South,180,1.0,1.0,78,0.00,,,0.00,Wunderground v.1.15,2013-09-05 07:10:00,
2013-09-05 00:16:00,71.2,64.4,29.84,South,180,1.0,1.0,79,0.00,,,0.00,Wunderground v.1.15,2013-09-05 07:16:00,
2013-09-05 00:25:00,70.9,64.1,29.84,South,180,0.0,1.0,79,0.00,,,0.00,Wunderground v.1.15,2013-09-05 07:25:00,
2013-09-05 00:30:00,70.7,64.2,29.84,South,179,1.0,1.0,80,0.00,,,0.00,Wunderground v.1.15,2013-09-05 07:30:00,
2013-09-05 00:35:00,70.5,64.0,29.84,South,171,2.0,2.0,80,0.00,,,0.00,Wunderground v.1.15,2013-09-05 07:35:00,
2013-09-05 00:40:00,70.3,64.2,29.84,South,169,1.0,1.0,81,0.00,,,0.00,Wunderground v.1.15,2013-09-05 07:40:00,
2013-09-05 00:45:00,70.1,64.0,29.84,South,169,1.0,1.0,81,0.00,,,0.00,Wunderground v.1.15,2013-09-05 07:45:00,
2013-09-05 00:50:00,70.0,64.2,29.84,South,169,1.0,1.0,82,0.00,,,0.00,Wunderground v.1.15,2013-09-05 07:50:00,
2013-09-05 00:55:00,69.8,64.1,29.84,South,169,0.0,1.0,82,0.00,,,0.00,Wunderground v.1.15,2013-09-05 07:55:00,
2013-09-05 01:00:00,69.6,63.9,29.84,South,169,1.0,2.0,82,0.00,,,0.00,Wunderground v.1.15,2013-09-05 08:00:00,
2013-09-05 01:05:00,69.4,63.7,29.84,SSE,158,1.0,-999.0,82,0.00,,,0.00,Wunderground v.1.15,2013-09-05 08:05:00,
2013-09-05 01:10:00,69.4,63.7,29.84,SSE,167,1.0,2.0,82,0.00,,,0.00,Wunderground v.1.15,2013-09-05 08:10:00,
2013-09-05 01:15:00,69.3,63.9,29.84,SSE,158,0.0,-999.0,83,0.00,,,0.00,Wunderground v.1.15,2013-09-05 08:15:00,
2013-09-05 01:20:00,69.3,63.9,29.84,SSE,167,0.0,0.0,83,0.00,,,0.00,Wunderground v.1.15,2013-09-05 08:20:00,
2013-09-05 01:25:00,69.2,63.8,29.84,SSE,166,1.0,1.0,83,0.00,,,0.00,Wunderground v.1.15,2013-09-05 08:25:00,
2013-09-05 01:30:00,69.2,63.8,29.83,SSE,166,1.0,1.0,83,0.00,,,0.00,Wunderground v.1.15,2013-09-05 08:30:00,
2013-09-05 01:35:00,69.1,63.7,29.83,SSE,166,0.0,1.0,83,0.00,,,0.00,Wunderground v.1.15,2013-09-05 08:35:00,
2013-09-05 01:40:00,69.0,63.6,29.83,SSE,158,0.0,-999.0,83,0.00,,,0.00,Wunderground v.1.15,2013-09-05 08:40:00,
2013-09-05 01:45:00,69.0,63.6,29.84,SSE,166,1.0,2.0,83,0.00,,,0.00,Wunderground v.1.15,2013-09-05 08:45:00,
2013-09-05 01:50:00,69.0,63.6,29.83,SSE,166,0.0,0.0,83,0.00,,,0.00,Wunderground v.1.15,2013-09-05 08:50:00,
2013-09-05 01:55:00,69.0,63.6,29.83,SSE,166,0.0,0.0,83,0.00,,,0.00,Wunderground v.1.15,2013-09-05 08:55:00,
2013-09-05 02:00:00,69.0,63.6,29.83,SSE,166,1.0,1.0,83,0.00,,,0.00,Wunderground v.1.15,2013-09-05 09:00:00,
2013-09-05 02:05:00,69.0,63.6,29.83,SSE,166,0.0,1.0,83,0.00,,,0.00,Wunderground v.1.15,2013-09-05 09:05:00,
2013-09-05 02:10:00,69.0,63.6,29.83,SSE,158,1.0,-999.0,83,0.00,,,0.00,Wunderground v.1.15,2013-09-05 09:10:00,
2013-09-05 02:15:00,69.1,63.7,29.83,SSE,158,1.0,-999.0,83,0.00,,,0.00,Wunderground v.1.15,2013-09-05 09:15:00,
2013-09-05 02:20:00,69.1,63.7,29.83,SSE,154,1.0,1.0,83,0.00,,,0.00,Wunderground v.1.15,2013-09-05 09:20:00,
2013-09-05 02:25:00,69.1,63.7,29.83,SSE,154,1.0,4.0,83,0.00,,,0.00,Wunderground v.1.15,2013-09-05 09:25:00,
2013-09-05 02:30:00,69.1,63.7,29.83,SSE,154,1.0,2.0,83,0.00,,,0.00,Wunderground v.1.15,2013-09-05 09:30:00,
2013-09-05 02:35:00,69.0,63.6,29.83,SSE,154,1.0,2.0,83,0.00,,,0.00,Wunderground v.1.15,2013-09-05 09:35:00,
2013-09-05 02:40:00,68.9,63.5,29.83,SSE,158,0.0,-999.0,83,0.00,,,0.00,Wunderground v.1.15,2013-09-05 09:40:00,
2013-09-05 02:41:00,68.9,63.5,29.83,SSE,154,0.0,0.0,83,0.00,,,0.00,Wunderground v.1.15,2013-09-05 09:41:00,
2013-09-05 02:45:00,68.8,63.4,29.83,SSE,154,0.0,2.0,83,0.00,,,0.00,Wunderground v.1.15,2013-09-05 09:45:00,
2013-09-05 02:50:00,68.7,63.3,29.83,SSE,158,1.0,-999.0,83,0.00,,,0.00,Wunderground v.1.15,2013-09-05 09:50:00,
2013-09-05 02:51:00,68.6,63.2,29.82,SSE,154,1.0,1.0,83,0.00,,,0.00,Wunderground v.1.15,2013-09-05 09:51:00,
2013-09-05 02:55:00,68.6,63.2,29.82,SSE,154,1.0,1.0,83,0.00,,,0.00,Wunderground v.1.15,2013-09-05 09:55:00,
2013-09-05 03:00:00,68.6,63.2,29.82,SSE,154,0.0,0.0,83,0.00,,,0.00,Wunderground v.1.15,2013-09-05 10:00:00,
2013-09-05 03:05:00,68.5,63.1,29.82,SSE,154,0.0,2.0,83,0.00,,,0.00,Wunderground v.1.15,2013-09-05 10:05:00,
2013-09-05 03:10:00,68.5,63.1,29.82,SSE,154,1.0,1.0,83,0.00,,,0.00,Wunderground v.1.15,2013-09-05 10:10:00,
2013-09-05 03:15:00,68.4,63.0,29.82,SSE,158,1.0,-999.0,83,0.00,,,0.00,Wunderground v.1.15,2013-09-05 10:15:00,
2013-09-05 03:20:00,68.4,63.0,29.82,SSE,153,1.0,1.0,83,0.00,,,0.00,Wunderground v.1.15,2013-09-05 10:20:00,
2013-09-05 03:25:00,68.4,63.0,29.82,SSE,150,2.0,3.0,83,0.00,,,0.00,Wunderground v.1.15,2013-09-05 10:25:00,
2013-09-05 03:30:00,68.4,63.0,29.82,SSE,149,2.0,2.0,83,0.00,,,0.00,Wunderground v.1.15,2013-09-05 10:30:00,
2013-09-05 03:35:00,68.4,63.0,29.82,SSE,148,2.0,2.0,83,0.00,,,0.00,Wunderground v.1.15,2013-09-05 10:35:00,
2013-09-05 03:40:00,68.4,63.0,29.82,SSE,148,2.0,2.0,83,0.00,,,0.00,Wunderground v.1.15,2013-09-05 10:40:00,
2013-09-05 03:45:00,68.4,63.0,29.82,SSE,148,1.0,2.0,83,0.00,,,0.00,Wunderground v.1.15,2013-09-05 10:45:00,
2013-09-05 03:50:00,68.5,63.1,29.82,SSE,148,1.0,1.0,83,0.00,,,0.00,Wunderground v.1.15,2013-09-05 10:50:00,
2013-09-05 03:55:00,68.5,63.1,29.82,SSE,148,0.0,1.0,83,0.00,,,0.00,Wunderground v.1.15,2013-09-05 10:55:00,
2013-09-05 04:00:00,68.5,63.1,29.82,SSE,158,0.0,-999.0,83,0.00,,,0.00,Wunderground v.1.15,2013-09-05 11:00:00,
2013-09-05 04:05:00,68.6,63.2,29.82,SSE,148,0.0,2.0,83,0.00,,,0.00,Wunderground v.1.15,2013-09-05 11:05:00,
2013-09-05 04:10:00,68.7,63.3,29.82,SSE,148,0.0,0.0,83,0.00,,,0.00,Wunderground v.1.15,2013-09-05 11:10:00,
2013-09-05 04:15:00,68.7,63.3,29.82,SSE,158,0.0,-999.0,83,0.00,,,0.00,Wunderground v.1.15,2013-09-05 11:15:00,
2013-09-05 04:20:00,68.7,63.3,29.82,SSE,148,0.0,0.0,83,0.00,,,0.00,Wunderground v.1.15,2013-09-05 11:20:00,
2013-09-05 04:25:00,68.6,63.2,29.82,N/A,-737280,0.0,-999.0,83,0.00,,,0.00,Wunderground v.1.15,2013-09-05 11:25:00,
2013-09-05 04:26:00,68.6,63.2,29.82,SSE,148,0.0,0.0,83,0.00,,,0.00,Wunderground v.1.15,2013-09-05 11:26:00,
2013-09-05 04:30:00,68.6,63.2,29.82,N/A,-737280,0.0,-999.0,83,0.00,,,0.00,Wunderground v.1.15,2013-09-05 11:30:00,
2013-09-05 04:35:00,68.5,63.1,29.82,SSE,148,0.0,0.0,83,0.00,,,0.00,Wunderground v.1.15,2013-09-05 11:35:00,
2013-09-05 04:40:00,68.4,63.4,29.82,SSE,148,0.0,0.0,84,0.00,,,0.00,Wunderground v.1.15,2013-09-05 11:40:00,
2013-09-05 04:45:00,68.3,63.3,29.82,SSE,148,0.0,0.0,84,0.00,,,0.00,Wunderground v.1.15,2013-09-05 11:45:00,
2013-09-05 04:50:00,68.2,63.2,29.82,N/A,-737280,0.0,-999.0,84,0.00,,,0.00,Wunderground v.1.15,2013-09-05 11:50:00,
2013-09-05 04:55:00,68.0,63.0,29.83,N/A,-737280,0.0,-999.0,84,0.00,,,0.00,Wunderground v.1.15,2013-09-05 11:55:00,
2013-09-05 04:56:00,68.0,63.0,29.82,SSE,148,0.0,0.0,84,0.00,,,0.00,Wunderground v.1.15,2013-09-05 11:56:00,
2013-09-05 05:00:00,68.0,63.0,29.83,N/A,-737280,0.0,-999.0,84,0.00,,,0.00,Wunderground v.1.15,2013-09-05 12:00:00,
2013-09-05 05:05:00,67.9,63.2,29.83,SSE,148,0.0,0.0,85,0.00,,,0.00,Wunderground v.1.15,2013-09-05 12:05:00,
2013-09-05 05:10:00,67.8,63.1,29.83,N/A,-737280,0.0,-999.0,85,0.00,,,0.00,Wunderground v.1.15,2013-09-05 12:10:00,
2013-09-05 05:15:00,67.6,62.9,29.83,N/A,-737280,0.0,-999.0,85,0.00,,,0.00,Wunderground v.1.15,2013-09-05 12:15:00,
2013-09-05 05:20:00,67.5,62.8,29.83,SSE,148,0.0,0.0,85,0.00,,,0.00,Wunderground v.1.15,2013-09-05 12:20:00,
2013-09-05 05:25:00,67.4,62.7,29.83,SSE,148,0.0,0.0,85,0.00,,,0.00,Wunderground v.1.15,2013-09-05 12:25:00,
2013-09-05 05:30:00,67.2,62.5,29.83,N/A,-737280,0.0,-999.0,85,0.00,,,0.00,Wunderground v.1.15,2013-09-05 12:30:00,
2013-09-05 05:35:00,67.1,62.4,29.83,SSE,148,0.0,0.0,85,0.00,,,0.00,Wunderground v.1.15,2013-09-05 12:35:00,
2013-09-05 05:40:00,67.1,62.8,29.83,SSE,148,0.0,0.0,86,0.00,,,0.00,Wunderground v.1.15,2013-09-05 12:40:00,
2013-09-05 05:45:00,67.1,62.8,29.83,SSE,148,0.0,0.0,86,0.00,,,0.00,Wunderground v.1.15,2013-09-05 12:45:00,
2013-09-05 05:50:00,67.1,62.8,29.83,SSE,148,0.0,0.0,86,0.00,,,0.00,Wunderground v.1.15,2013-09-05 12:50:00,
2013-09-05 05:55:00,67.1,62.8,29.83,SSE,148,0.0,0.0,86,0.00,,,0.00,Wunderground v.1.15,2013-09-05 12:55:00,
2013-09-05 06:00:00,66.9,62.6,29.83,SSE,148,0.0,0.0,86,0.00,,,0.00,Wunderground v.1.15,2013-09-05 13:00:00,
2013-09-05 06:05:00,66.9,62.6,29.83,N/A,-737280,0.0,-999.0,86,0.00,,,0.00,Wunderground v.1.15,2013-09-05 13:05:00,
2013-09-05 06:10:00,66.9,62.6,29.83,SSE,148,0.0,0.0,86,0.00,,,0.00,Wunderground v.1.15,2013-09-05 13:10:00,
2013-09-05 06:15:00,66.8,62.5,29.83,N/A,-737280,0.0,-999.0,86,0.00,,,0.00,Wunderground v.1.15,2013-09-05 13:15:00,
2013-09-05 06:16:00,66.8,62.5,29.83,SSE,148,0.0,0.0,86,0.00,,,0.00,Wunderground v.1.15,2013-09-05 13:16:00,
2013-09-05 06:20:00,66.8,62.5,29.83,N/A,-737280,0.0,-999.0,86,0.00,,,0.00,Wunderground v.1.15,2013-09-05 13:20:00,
2013-09-05 06:25:00,66.7,62.4,29.83,SSE,148,0.0,0.0,86,0.00,,,0.00,Wunderground v.1.15,2013-09-05 13:25:00,
2013-09-05 06:30:00,66.7,62.7,29.83,SSE,148,0.0,0.0,87,0.00,,,0.00,Wunderground v.1.15,2013-09-05 13:30:00,
2013-09-05 06:35:00,66.7,62.4,29.83,SSE,148,0.0,0.0,86,0.00,,,0.00,Wunderground v.1.15,2013-09-05 13:35:00,
2013-09-05 06:40:00,66.6,62.6,29.83,N/A,-737280,0.0,-999.0,87,0.00,,,0.00,Wunderground v.1.15,2013-09-05 13:40:00,
2013-09-05 06:45:00,66.7,62.7,29.84,SSE,148,0.0,0.0,87,0.00,,,0.00,Wunderground v.1.15,2013-09-05 13:45:00,
2013-09-05 06:50:00,66.7,62.7,29.84,SSE,148,0.0,0.0,87,0.00,,,0.00,Wunderground v.1.15,2013-09-05 13:50:00,
2013-09-05 06:55:00,66.9,62.9,29.85,N/A,-737280,0.0,-999.0,87,0.00,,,0.00,Wunderground v.1.15,2013-09-05 13:55:00,
2013-09-05 07:00:00,66.9,62.9,29.85,N/A,-737280,0.0,-999.0,87,0.00,,,0.00,Wunderground v.1.15,2013-09-05 14:00:00,
2013-09-05 07:01:00,66.9,62.9,29.85,SSE,148,0.0,0.0,87,0.00,,,0.00,Wunderground v.1.15,2013-09-05 14:01:00,
2013-09-05 07:05:00,67.0,63.0,29.84,SSE,148,0.0,0.0,87,0.00,,,0.00,Wunderground v.1.15,2013-09-05 14:05:00,
2013-09-05 07:10:00,67.1,63.1,29.85,SSE,148,0.0,0.0,87,0.00,,,0.00,Wunderground v.1.15,2013-09-05 14:10:00,
2013-09-05 07:15:00,67.6,63.6,29.85,SSE,158,0.0,-999.0,87,0.00,,,0.00,Wunderground v.1.15,2013-09-05 14:15:00,
2013-09-05 07:20:00,67.6,63.6,29.85,SSE,148,0.0,0.0,87,0.00,,,0.00,Wunderground v.1.15,2013-09-05 14:20:00,
2013-09-05 07:25:00,67.9,63.9,29.85,SSE,148,0.0,0.0,87,0.00,,,0.00,Wunderground v.1.15,2013-09-05 14:25:00,
2013-09-05 07:30:00,68.3,63.9,29.85,SSE,148,0.0,0.0,86,0.00,,,0.00,Wunderground v.1.15,2013-09-05 14:30:00,
2013-09-05 07:35:00,68.7,64.3,29.85,SSE,148,0.0,0.0,86,0.00,,,0.00,Wunderground v.1.15,2013-09-05 14:35:00,
2013-09-05 07:40:00,69.1,64.4,29.85,SE,144,0.0,0.0,85,0.00,,,0.00,Wunderground v.1.15,2013-09-05 14:40:00,
2013-09-05 07:45:00,69.9,64.8,29.86,SE,135,0.0,-999.0,84,0.00,,,0.00,Wunderground v.1.15,2013-09-05 14:45:00,
2013-09-05 07:46:00,69.5,64.5,29.85,SE,144,0.0,0.0,84,0.00,,,0.00,Wunderground v.1.15,2013-09-05 14:46:00,
2013-09-05 07:50:00,69.9,64.8,29.86,SE,135,0.0,-999.0,84,0.00,,,0.00,Wunderground v.1.15,2013-09-05 14:50:00,
2013-09-05 07:55:00,70.5,65.1,29.85,SE,144,0.0,0.0,83,0.00,,,0.00,Wunderground v.1.15,2013-09-05 14:55:00,
2013-09-05 08:00:00,71.1,65.3,29.85,SE,144,0.0,0.0,82,0.00,,,0.00,Wunderground v.1.15,2013-09-05 15:00:00,
2013-09-05 08:05:00,71.9,65.8,29.85,SE,144,0.0,0.0,81,0.00,,,0.00,Wunderground v.1.15,2013-09-05 15:05:00,
2013-09-05 08:10:00,72.5,65.6,29.85,SE,135,0.0,-999.0,79,0.00,,,0.00,Wunderground v.1.15,2013-09-05 15:10:00,
2013-09-05 08:15:00,73.3,66.0,29.85,SE,135,0.0,-999.0,78,0.00,,,0.00,Wunderground v.1.15,2013-09-05 15:15:00,
2013-09-05 08:20:00,73.4,66.1,29.85,SSW,210,0.0,2.0,78,0.00,,,0.00,Wunderground v.1.15,2013-09-05 15:20:00,
2013-09-05 08:25:00,74.2,66.5,29.85,SSW,210,0.0,2.0,77,0.00,,,0.00,Wunderground v.1.15,2013-09-05 15:25:00,
2013-09-05 08:30:00,74.7,66.2,29.85,SSW,209,0.0,0.0,75,0.00,,,0.00,Wunderground v.1.15,2013-09-05 15:30:00,
2013-09-05 08:35:00,75.3,66.4,29.86,SSW,209,0.0,0.0,74,0.00,,,0.00,Wunderground v.1.15,2013-09-05 15:35:00,
2013-09-05 08:40:00,75.7,66.8,29.85,SSW,209,0.0,0.0,74,0.00,,,0.00,Wunderground v.1.15,2013-09-05 15:40:00,
2013-09-05 08:45:00,75.9,66.6,29.85,SSW,209,0.0,0.0,73,0.00,,,0.00,Wunderground v.1.15,2013-09-05 15:45:00,
2013-09-05 08:50:00,76.5,66.8,29.85,SSW,209,0.0,0.0,72,0.00,,,0.00,Wunderground v.1.15,2013-09-05 15:50:00,
2013-09-05 08:55:00,77.0,66.9,29.85,SSW,209,0.0,0.0,71,0.00,,,0.00,Wunderground v.1.15,2013-09-05 15:55:00,
2013-09-05 09:00:00,77.6,67.0,29.86,SSW,209,0.0,0.0,70,0.00,,,0.00,Wunderground v.1.15,2013-09-05 16:00:00,
2013-09-05 09:05:00,78.6,67.6,29.85,SSW,209,0.0,0.0,69,0.00,,,0.00,Wunderground v.1.15,2013-09-05 16:05:00,
2013-09-05 09:10:00,79.5,68.0,29.85,SSW,209,0.0,0.0,68,0.00,,,0.00,Wunderground v.1.15,2013-09-05 16:10:00,
2013-09-05 09:15:00,80.6,67.7,29.85,SW,225,0.0,-999.0,65,0.00,,,0.00,Wunderground v.1.15,2013-09-05 16:15:00,
2013-09-05 09:20:00,80.7,67.8,29.85,SW,219,0.0,0.0,65,0.00,,,0.00,Wunderground v.1.15,2013-09-05 16:20:00,
2013-09-05 09:25:00,81.1,67.8,29.86,SW,218,0.0,0.0,64,0.00,,,0.00,Wunderground v.1.15,2013-09-05 16:25:00,
2013-09-05 09:30:00,81.6,67.8,29.86,SW,218,0.0,0.0,63,0.00,,,0.00,Wunderground v.1.15,2013-09-05 16:30:00,
2013-09-05 09:35:00,82.0,67.7,29.86,SW,218,0.0,0.0,62,0.00,,,0.00,Wunderground v.1.15,2013-09-05 16:35:00,
2013-09-05 09:40:00,82.4,68.1,29.86,SW,218,0.0,0.0,62,0.00,,,0.00,Wunderground v.1.15,2013-09-05 16:40:00,
2013-09-05 09:45:00,82.9,67.6,29.86,ESE,111,0.0,1.0,60,0.00,,,0.00,Wunderground v.1.15,2013-09-05 16:45:00,
2013-09-05 09:50:00,83.0,68.2,29.86,SSE,167,1.0,2.0,61,0.00,,,0.00,Wunderground v.1.15,2013-09-05 16:50:00,
2013-09-05 09:55:00,82.9,68.1,29.86,SSE,167,1.0,2.0,61,0.00,,,0.00,Wunderground v.1.15,2013-09-05 16:55:00,
2013-09-05 10:00:00,83.2,67.9,29.86,SSE,157,0.0,1.0,60,0.00,,,0.00,Wunderground v.1.15,2013-09-05 17:00:00,
2013-09-05 10:05:00,83.9,68.5,29.86,SE,128,0.0,1.0,60,0.00,,,0.00,Wunderground v.1.15,2013-09-05 17:05:00,
2013-09-05 10:10:00,84.1,68.2,29.87,SE,135,1.0,-999.0,59,0.00,,,0.00,Wunderground v.1.15,2013-09-05 17:10:00,
2013-09-05 10:15:00,85.4,68.4,29.87,SE,135,0.0,-999.0,57,0.00,,,0.00,Wunderground v.1.15,2013-09-05 17:15:00,
2013-09-05 10:20:00,85.4,68.4,29.87,SE,135,0.0,-999.0,57,0.00,,,0.00,Wunderground v.1.15,2013-09-05 17:20:00,
2013-09-05 10:25:00,85.7,69.7,29.86,SSW,203,2.0,-999.0,59,0.00,,,0.00,Wunderground v.1.15,2013-09-05 17:25:00,
2013-09-05 10:30:00,85.7,69.7,29.86,SSW,203,2.0,-999.0,59,0.00,,,0.00,Wunderground v.1.15,2013-09-05 17:30:00,
2013-09-05 10:35:00,84.8,69.4,29.86,SSW,203,2.0,-999.0,60,0.00,,,0.00,Wunderground v.1.15,2013-09-05 17:35:00,
2013-09-05 10:40:00,84.8,69.4,29.86,SSW,203,2.0,-999.0,60,0.00,,,0.00,Wunderground v.1.15,2013-09-05 17:40:00,
2013-09-05 10:45:00,84.6,69.2,29.86,SSW,203,3.0,-999.0,60,0.00,,,0.00,Wunderground v.1.15,2013-09-05 17:45:00,
2013-09-05 10:50:00,84.6,69.2,29.86,SSW,203,3.0,-999.0,60,0.00,,,0.00,Wunderground v.1.15,2013-09-05 17:50:00,
2013-09-05 10:55:00,84.0,69.1,29.86,SW,225,4.0,-999.0,61,0.00,,,0.00,Wunderground v.1.15,2013-09-05 17:55:00,
2013-09-05 11:00:00,84.0,69.1,29.86,SW,225,4.0,-999.0,61,0.00,,,0.00,Wunderground v.1.15,2013-09-05 18:00:00,
2013-09-05 11:05:00,84.3,69.4,29.86,SW,225,3.0,-999.0,61,0.00,,,0.00,Wunderground v.1.15,2013-09-05 18:05:00,
2013-09-05 11:10:00,84.3,69.4,29.86,SW,225,3.0,-999.0,61,0.00,,,0.00,Wunderground v.1.15,2013-09-05 18:10:00,
2013-09-05 11:15:00,83.7,68.8,29.86,SW,225,3.0,-999.0,61,0.00,,,0.00,Wunderground v.1.15,2013-09-05 18:15:00,
2013-09-05 11:20:00,83.7,68.8,29.86,SW,225,3.0,-999.0,61,0.00,,,0.00,Wunderground v.1.15,2013-09-05 18:20:00,
2013-09-05 11:25:00,82.9,68.5,29.86,SSW,203,4.0,-999.0,62,0.00,,,0.00,Wunderground v.1.15,2013-09-05 18:25:00,
2013-09-05 11:30:00,82.9,68.5,29.86,SSW,203,4.0,-999.0,62,0.00,,,0.00,Wunderground v.1.15,2013-09-05 18:30:00,
2013-09-05 11:35:00,82.4,67.6,29.86,SSW,203,4.0,-999.0,61,0.00,,,0.00,Wunderground v.1.15,2013-09-05 18:35:00,
2013-09-05 11:40:00,82.4,67.6,29.86,SSW,203,4.0,-999.0,61,0.00,,,0.00,Wunderground v.1.15,2013-09-05 18:40:00,
2013-09-05 11:45:00,82.2,67.9,29.86,SW,225,3.0,-999.0,62,0.00,,,0.00,Wunderground v.1.15,2013-09-05 18:45:00,
2013-09-05 11:50:00,82.2,67.9,29.86,SW,225,3.0,-999.0,62,0.00,,,0.00,Wunderground v.1.15,2013-09-05 18:50:00,
2013-09-05 11:55:00,83.0,67.7,29.86,SSW,203,3.0,-999.0,60,0.00,,,0.00,Wunderground v.1.15,2013-09-05 18:55:00,
2013-09-05 12:00:00,83.0,67.7,29.86,SSW,203,3.0,-999.0,60,0.00,,,0.00,Wunderground v.1.15,2013-09-05 19:00:00,
2013-09-05 12:05:00,83.6,66.8,29.85,SSW,203,3.0,-999.0,57,0.00,,,0.00,Wunderground v.1.15,2013-09-05 19:05:00,
2013-09-05 12:10:00,83.6,66.8,29.85,SSW,203,3.0,-999.0,57,0.00,,,0.00,Wunderground v.1.15,2013-09-05 19:10:00,
2013-09-05 12:15:00,84.8,66.3,29.85,SW,225,4.0,-999.0,54,0.00,,,0.00,Wunderground v.1.15,2013-09-05 19:15:00,
2013-09-05 12:20:00,84.8,66.3,29.85,SW,225,4.0,-999.0,54,0.00,,,0.00,Wunderground v.1.15,2013-09-05 19:20:00,
2013-09-05 12:25:00,86.0,67.4,29.85,South,180,3.0,-999.0,54,0.00,,,0.00,Wunderground v.1.15,2013-09-05 19:25:00,
2013-09-05 12:30:00,86.0,67.4,29.85,South,180,3.0,-999.0,54,0.00,,,0.00,Wunderground v.1.15,2013-09-05 19:30:00,
2013-09-05 12:35:00,87.0,66.7,29.85,SW,225,3.0,-999.0,51,0.00,,,0.00,Wunderground v.1.15,2013-09-05 19:35:00,
2013-09-05 12:40:00,87.0,66.7,29.85,SW,225,3.0,-999.0,51,0.00,,,0.00,Wunderground v.1.15,2013-09-05 19:40:00,
2013-09-05 12:45:00,87.5,66.6,29.85,South,180,3.0,-999.0,50,0.00,,,0.00,Wunderground v.1.15,2013-09-05 19:45:00,
2013-09-05 12:50:00,87.5,66.6,29.85,South,180,3.0,-999.0,50,0.00,,,0.00,Wunderground v.1.15,2013-09-05 19:50:00,
2013-09-05 12:55:00,87.5,66.6,29.84,SSW,203,3.0,-999.0,50,0.00,,,0.00,Wunderground v.1.15,2013-09-05 19:55:00,
2013-09-05 13:00:00,87.5,66.6,29.84,SSW,203,3.0,-999.0,50,0.00,,,0.00,Wunderground v.1.15,2013-09-05 20:00:00,
2013-09-05 13:05:00,88.0,65.8,29.84,SSW,203,4.0,-999.0,48,0.00,,,0.00,Wunderground v.1.15,2013-09-05 20:05:00,
2013-09-05 13:10:00,88.0,65.8,29.84,SSW,203,4.0,-999.0,48,0.00,,,0.00,Wunderground v.1.15,2013-09-05 20:10:00,
2013-09-05 13:15:00,88.0,65.8,29.84,SSW,203,4.0,-999.0,48,0.00,,,0.00,Wunderground v.1.15,2013-09-05 20:15:00,
2013-09-05 13:20:00,88.0,65.8,29.84,SSW,203,4.0,-999.0,48,0.00,,,0.00,Wunderground v.1.15,2013-09-05 20:20:00,
2013-09-05 13:25:00,88.4,65.6,29.83,South,180,4.0,-999.0,47,0.00,,,0.00,Wunderground v.1.15,2013-09-05 20:25:00,
2013-09-05 13:30:00,88.4,65.6,29.83,South,180,4.0,-999.0,47,0.00,,,0.00,Wunderground v.1.15,2013-09-05 20:30:00,
2013-09-05 13:35:00,89.1,66.2,29.83,SSW,203,4.0,-999.0,47,0.00,,,0.00,Wunderground v.1.15,2013-09-05 20:35:00,
2013-09-05 13:40:00,89.1,66.2,29.83,SSW,203,4.0,-999.0,47,0.00,,,0.00,Wunderground v.1.15,2013-09-05 20:40:00,
2013-09-05 13:45:00,89.6,64.8,29.82,SW,225,3.0,-999.0,44,0.00,,,0.00,Wunderground v.1.15,2013-09-05 20:45:00,
2013-09-05 13:50:00,89.6,64.8,29.82,SW,225,3.0,-999.0,44,0.00,,,0.00,Wunderground v.1.15,2013-09-05 20:50:00,
2013-09-05 13:55:00,90.5,65.6,29.82,South,180,4.0,-999.0,44,0.00,,,0.00,Wunderground v.1.15,2013-09-05 20:55:00,
2013-09-05 14:00:00,90.5,65.6,29.82,South,180,4.0,-999.0,44,0.00,,,0.00,Wunderground v.1.15,2013-09-05 21:00:00,
2013-09-05 14:05:00,91.7,66.0,29.81,SSW,203,3.0,-999.0,43,0.00,,,0.00,Wunderground v.1.15,2013-09-05 21:05:00,
2013-09-05 14:10:00,91.7,66.0,29.81,SSW,203,3.0,-999.0,43,0.00,,,0.00,Wunderground v.1.15,2013-09-05 21:10:00,
2013-09-05 14:15:00,92.3,65.9,29.81,SSW,203,3.0,-999.0,42,0.00,,,0.00,Wunderground v.1.15,2013-09-05 21:15:00,
2013-09-05 14:20:00,92.3,65.9,29.81,SSW,203,3.0,-999.0,42,0.00,,,0.00,Wunderground v.1.15,2013-09-05 21:20:00,
2013-09-05 14:25:00,93.1,66.6,29.80,SW,225,3.0,-999.0,42,0.00,,,0.00,Wunderground v.1.15,2013-09-05 21:25:00,
2013-09-05 14:30:00,93.1,66.6,29.80,SW,225,3.0,-999.0,42,0.00,,,0.00,Wunderground v.1.15,2013-09-05 21:30:00,
2013-09-05 14:35:00,94.5,67.9,29.80,SSW,203,2.0,-999.0,42,0.00,,,0.00,Wunderground v.1.15,2013-09-05 21:35:00,
2013-09-05 14:40:00,94.5,67.9,29.80,SSW,203,2.0,-999.0,42,0.00,,,0.00,Wunderground v.1.15,2013-09-05 21:40:00,
2013-09-05 14:45:00,95.2,67.8,29.80,SW,225,5.0,-999.0,41,0.00,,,0.00,Wunderground v.1.15,2013-09-05 21:45:00,
2013-09-05 14:50:00,95.2,67.8,29.80,SW,225,5.0,-999.0,41,0.00,,,0.00,Wunderground v.1.15,2013-09-05 21:50:00,
2013-09-05 14:55:00,95.2,67.1,29.79,NW,315,6.0,-999.0,40,0.00,,,0.00,Wunderground v.1.15,2013-09-05 21:55:00,
2013-09-05 15:00:00,95.2,67.1,29.79,NW,315,6.0,-999.0,40,0.00,,,0.00,Wunderground v.1.15,2013-09-05 22:00:00,
2013-09-05 15:05:00,94.2,64.7,29.80,WNW,293,7.0,-999.0,38,0.00,,,0.00,Wunderground v.1.15,2013-09-05 22:05:00,
2013-09-05 15:10:00,94.2,64.7,29.80,WNW,293,7.0,-999.0,38,0.00,,,0.00,Wunderground v.1.15,2013-09-05 22:10:00,
2013-09-05 15:15:00,92.8,64.9,29.79,WNW,293,7.0,-999.0,40,0.00,,,0.00,Wunderground v.1.15,2013-09-05 22:15:00,
2013-09-05 15:20:00,92.8,64.9,29.79,WNW,293,7.0,-999.0,40,0.00,,,0.00,Wunderground v.1.15,2013-09-05 22:20:00,
2013-09-05 15:25:00,93.0,65.1,29.79,WNW,293,5.0,-999.0,40,0.00,,,0.00,Wunderground v.1.15,2013-09-05 22:25:00,
2013-09-05 15:30:00,93.0,65.1,29.79,WNW,293,5.0,-999.0,40,0.00,,,0.00,Wunderground v.1.15,2013-09-05 22:30:00,
2013-09-05 15:35:00,92.2,65.8,29.80,NW,315,6.0,-999.0,42,0.00,,,0.00,Wunderground v.1.15,2013-09-05 22:35:00,
2013-09-05 15:40:00,92.2,65.8,29.80,NW,315,6.0,-999.0,42,0.00,,,0.00,Wunderground v.1.15,2013-09-05 22:40:00,
2013-09-05 15:45:00,91.5,65.2,29.79,WNW,293,6.0,-999.0,42,0.00,,,0.00,Wunderground v.1.15,2013-09-05 22:45:00,
2013-09-05 15:50:00,91.5,65.2,29.79,WNW,293,6.0,-999.0,42,0.00,,,0.00,Wunderground v.1.15,2013-09-05 22:50:00,
2013-09-05 15:55:00,91.4,65.1,29.79,NW,315,5.0,-999.0,42,0.00,,,0.00,Wunderground v.1.15,2013-09-05 22:55:00,
2013-09-05 16:00:00,91.4,65.1,29.79,NW,315,5.0,-999.0,42,0.00,,,0.00,Wunderground v.1.15,2013-09-05 23:00:00,
2013-09-05 16:05:00,90.3,64.1,29.80,WNW,293,7.0,-999.0,42,0.00,,,0.00,Wunderground v.1.15,2013-09-05 23:05:00,
2013-09-05 16:10:00,90.3,64.1,29.80,WNW,293,7.0,-999.0,42,0.00,,,0.00,Wunderground v.1.15,2013-09-05 23:10:00,
2013-09-05 16:15:00,90.5,64.3,29.79,WNW,293,6.0,-999.0,42,0.00,,,0.00,Wunderground v.1.15,2013-09-05 23:15:00,
2013-09-05 16:20:00,90.5,64.3,29.79,WNW,293,6.0,-999.0,42,0.00,,,0.00,Wunderground v.1.15,2013-09-05 23:20:00,
2013-09-05 16:25:00,90.8,63.9,29.79,WNW,293,6.0,-999.0,41,0.00,,,0.00,Wunderground v.1.15,2013-09-05 23:25:00,
2013-09-05 16:30:00,90.8,63.9,29.79,WNW,293,6.0,-999.0,41,0.00,,,0.00,Wunderground v.1.15,2013-09-05 23:30:00,
2013-09-05 16:35:00,89.9,64.4,29.79,WNW,293,6.0,-999.0,43,0.00,,,0.00,Wunderground v.1.15,2013-09-05 23:35:00,
2013-09-05 16:40:00,89.9,64.4,29.79,WNW,293,6.0,-999.0,43,0.00,,,0.00,Wunderground v.1.15,2013-09-05 23:40:00,
2013-09-05 16:45:00,89.6,64.8,29.79,WNW,293,6.0,-999.0,44,0.00,,,0.00,Wunderground v.1.15,2013-09-05 23:45:00,
2013-09-05 16:50:00,89.6,64.8,29.79,WNW,293,6.0,-999.0,44,0.00,,,0.00,Wunderground v.1.15,2013-09-05 23:50:00,
2013-09-05 16:55:00,89.0,64.3,29.79,West,270,6.0,-999.0,44,0.00,,,0.00,Wunderground v.1.15,2013-09-05 23:55:00,
2013-09-05 17:00:00,89.0,64.3,29.79,West,270,6.0,-999.0,44,0.00,,,0.00,Wunderground v.1.15,2013-09-06 00:00:00,
2013-09-05 17:05:00,89.0,63.6,29.79,West,270,5.0,-999.0,43,0.00,,,0.00,Wunderground v.1.15,2013-09-06 00:05:00,
2013-09-05 17:10:00,89.0,63.6,29.79,West,270,5.0,-999.0,43,0.00,,,0.00,Wunderground v.1.15,2013-09-06 00:10:00,
2013-09-05 17:15:00,88.2,64.2,29.79,West,270,7.0,-999.0,45,0.00,,,0.00,Wunderground v.1.15,2013-09-06 00:15:00,
2013-09-05 17:20:00,88.2,64.2,29.79,West,270,7.0,-999.0,45,0.00,,,0.00,Wunderground v.1.15,2013-09-06 00:20:00,
2013-09-05 17:25:00,87.5,64.8,29.79,NW,315,4.0,-999.0,47,0.00,,,0.00,Wunderground v.1.15,2013-09-06 00:25:00,
2013-09-05 17:30:00,87.5,64.8,29.79,NW,315,4.0,-999.0,47,0.00,,,0.00,Wunderground v.1.15,2013-09-06 00:30:00,
2013-09-05 17:35:00,87.3,64.0,29.79,WNW,293,4.0,-999.0,46,0.00,,,0.00,Wunderground v.1.15,2013-09-06 00:35:00,
2013-09-05 17:40:00,87.3,64.0,29.79,WNW,293,4.0,-999.0,46,0.00,,,0.00,Wunderground v.1.15,2013-09-06 00:40:00,
2013-09-05 17:45:00,86.6,64.0,29.79,WNW,293,4.0,-999.0,47,0.00,,,0.00,Wunderground v.1.15,2013-09-06 00:45:00,
2013-09-05 17:50:00,86.6,64.0,29.79,WNW,293,4.0,-999.0,47,0.00,,,0.00,Wunderground v.1.15,2013-09-06 00:50:00,
2013-09-05 17:55:00,86.3,64.3,29.79,WNW,293,3.0,-999.0,48,0.00,,,0.00,Wunderground v.1.15,2013-09-06 00:55:00,
2013-09-05 18:00:00,86.3,64.3,29.79,WNW,293,3.0,-999.0,48,0.00,,,0.00,Wunderground v.1.15,2013-09-06 01:00:00,
2013-09-05 18:05:00,85.9,63.9,29.80,NW,315,3.0,-999.0,48,0.00,,,0.00,Wunderground v.1.15,2013-09-06 01:05:00,
2013-09-05 18:10:00,85.9,63.9,29.80,NW,315,3.0,-999.0,48,0.00,,,0.00,Wunderground v.1.15,2013-09-06 01:10:00,
2013-09-05 18:15:00,85.8,64.4,29.79,NW,315,2.0,-999.0,49,0.00,,,0.00,Wunderground v.1.15,2013-09-06 01:15:00,
2013-09-05 18:20:00,85.8,64.4,29.79,NW,315,2.0,-999.0,49,0.00,,,0.00,Wunderground v.1.15,2013-09-06 01:20:00,
2013-09-05 18:25:00,85.5,63.0,29.80,NW,315,2.0,-999.0,47,0.00,,,0.00,Wunderground v.1.15,2013-09-06 01:25:00,
2013-09-05 18:30:00,85.5,63.0,29.80,NW,315,2.0,-999.0,47,0.00,,,0.00,Wunderground v.1.15,2013-09-06 01:30:00,
2013-09-05 18:35:00,85.3,63.4,29.79,NW,325,1.0,2.0,48,0.00,,,0.00,Wunderground v.1.15,2013-09-06 01:35:00,
2013-09-05 18:40:00,85.2,62.7,29.80,NW,324,1.0,2.0,47,0.00,,,0.00,Wunderground v.1.15,2013-09-06 01:40:00,
2013-09-05 18:45:00,85.1,63.2,29.80,NW,323,1.0,1.0,48,0.00,,,0.00,Wunderground v.1.15,2013-09-06 01:45:00,
2013-09-05 18:50:00,85.0,63.7,29.80,NNW,329,1.0,1.0,49,0.00,,,0.00,Wunderground v.1.15,2013-09-06 01:50:00,
2013-09-05 18:55:00,84.5,63.2,29.80,NNW,338,0.0,-999.0,49,0.00,,,0.00,Wunderground v.1.15,2013-09-06 01:55:00,
2013-09-05 18:56:00,84.7,63.4,29.80,NNW,329,0.0,0.0,49,0.00,,,0.00,Wunderground v.1.15,2013-09-06 01:56:00,
2013-09-05 19:00:00,84.4,63.2,29.80,NNW,329,0.0,1.0,49,0.00,,,0.00,Wunderground v.1.15,2013-09-06 02:00:00,
2013-09-05 19:05:00,84.1,63.5,29.80,NNW,329,1.0,1.0,50,0.00,,,0.00,Wunderground v.1.15,2013-09-06 02:05:00,
2013-09-05 19:10:00,83.6,62.4,29.80,WNW,298,1.0,1.0,49,0.00,,,0.00,Wunderground v.1.15,2013-09-06 02:10:00,
2013-09-05 19:15:00,82.9,62.4,29.80,NW,315,1.0,-999.0,50,0.00,,,0.00,Wunderground v.1.15,2013-09-06 02:15:00,
2013-09-05 19:16:00,83.3,63.3,29.80,WNW,298,1.0,1.0,51,0.00,,,0.00,Wunderground v.1.15,2013-09-06 02:16:00,
2013-09-05 19:20:00,82.9,62.4,29.80,NW,315,1.0,-999.0,50,0.00,,,0.00,Wunderground v.1.15,2013-09-06 02:20:00,
2013-09-05 19:25:00,82.3,62.4,29.80,NW,315,1.0,-999.0,51,0.00,,,0.00,Wunderground v.1.15,2013-09-06 02:25:00,
2013-09-05 19:26:00,82.5,62.5,29.80,NW,319,1.0,2.0,51,0.00,,,0.00,Wunderground v.1.15,2013-09-06 02:26:00,
2013-09-05 19:30:00,82.3,62.4,29.80,NW,317,1.0,2.0,51,0.00,,,0.00,Wunderground v.1.15,2013-09-06 02:30:00,
2013-09-05 19:35:00,81.8,62.5,29.80,WNW,293,2.0,-999.0,52,0.00,,,0.00,Wunderground v.1.15,2013-09-06 02:35:00,
2013-09-05 19:36:00,82.0,62.6,29.80,WNW,302,2.0,2.0,52,0.00,,,0.00,Wunderground v.1.15,2013-09-06 02:36:00,
2013-09-05 19:40:00,81.8,62.5,29.81,WNW,301,2.0,4.0,52,0.00,,,0.00,Wunderground v.1.15,2013-09-06 02:40:00,
2013-09-05 19:45:00,81.6,62.3,29.81,WNW,300,3.0,4.0,52,0.00,,,0.00,Wunderground v.1.15,2013-09-06 02:45:00,
2013-09-05 19:50:00,81.4,62.6,29.81,WNW,302,3.0,3.0,53,0.00,,,0.00,Wunderground v.1.15,2013-09-06 02:50:00,
2013-09-05 19:55:00,81.3,62.5,29.81,WNW,302,3.0,3.0,53,0.00,,,0.00,Wunderground v.1.15,2013-09-06 02:55:00,
2013-09-05 20:00:00,81.2,62.4,29.81,WNW,293,2.0,-999.0,53,0.00,,,0.00,Wunderground v.1.15,2013-09-06 03:00:00,
2013-09-05 20:01:00,81.2,62.4,29.81,WNW,302,2.0,2.0,53,0.00,,,0.00,Wunderground v.1.15,2013-09-06 03:01:00,
2013-09-05 20:05:00,81.0,62.3,29.81,WNW,302,2.0,4.0,53,0.00,,,0.00,Wunderground v.1.15,2013-09-06 03:05:00,
2013-09-05 20:10:00,80.7,62.5,29.82,WNW,302,2.0,2.0,54,0.00,,,0.00,Wunderground v.1.15,2013-09-06 03:10:00,
2013-09-05 20:15:00,80.4,62.2,29.81,WNW,293,0.0,-999.0,54,0.00,,,0.00,Wunderground v.1.15,2013-09-06 03:15:00,
2013-09-05 20:16:00,80.5,62.3,29.82,WNW,302,1.0,2.0,54,0.00,,,0.00,Wunderground v.1.15,2013-09-06 03:16:00,
2013-09-05 20:20:00,80.4,62.8,29.81,WNW,302,0.0,2.0,55,0.00,,,0.00,Wunderground v.1.15,2013-09-06 03:20:00,
2013-09-05 20:25:00,80.3,63.7,29.82,WNW,301,1.0,2.0,57,0.00,,,0.00,Wunderground v.1.15,2013-09-06 03:25:00,
2013-09-05 20:30:00,80.0,63.9,29.82,WNW,293,1.0,-999.0,58,0.00,,,0.00,Wunderground v.1.15,2013-09-06 03:30:00,
2013-09-05 20:31:00,79.9,63.8,29.82,WNW,300,2.0,2.0,58,0.00,,,0.00,Wunderground v.1.15,2013-09-06 03:31:00,
2013-09-05 20:35:00,79.5,63.9,29.82,WNW,300,1.0,2.0,59,0.00,,,0.00,Wunderground v.1.15,2013-09-06 03:35:00,
2013-09-05 20:40:00,79.2,64.1,29.83,WNW,300,0.0,0.0,60,0.00,,,0.00,Wunderground v.1.15,2013-09-06 03:40:00,
2013-09-05 20:45:00,78.8,63.7,29.83,WNW,300,0.0,0.0,60,0.00,,,0.00,Wunderground v.1.15,2013-09-06 03:45:00,
2013-09-05 20:50:00,78.4,64.3,29.82,WNW,300,0.0,0.0,62,0.00,,,0.00,Wunderground v.1.15,2013-09-06 03:50:00,
2013-09-05 20:55:00,77.4,64.3,29.83,WNW,293,0.0,-999.0,64,0.00,,,0.00,Wunderground v.1.15,2013-09-06 03:55:00,
2013-09-05 21:00:00,77.4,64.3,29.83,West,271,0.0,0.0,64,0.00,,,0.00,Wunderground v.1.15,2013-09-06 04:00:00,
2013-09-05 21:05:00,76.9,64.7,29.83,West,271,0.0,0.0,66,0.00,,,0.00,Wunderground v.1.15,2013-09-06 04:05:00,
2013-09-05 21:10:00,76.5,64.7,29.83,West,271,0.0,0.0,67,0.00,,,0.00,Wunderground v.1.15,2013-09-06 04:10:00,
2013-09-05 21:20:00,75.8,64.9,29.84,West,271,0.0,0.0,69,0.00,,,0.00,Wunderground v.1.15,2013-09-06 04:20:00,
2013-09-05 21:30:00,75.3,64.8,29.84,West,271,0.0,0.0,70,0.00,,,0.00,Wunderground v.1.15,2013-09-06 04:30:00,
2013-09-05 21:35:00,75.1,65.1,29.84,West,271,0.0,0.0,71,0.00,,,0.00,Wunderground v.1.15,2013-09-06 04:35:00,
2013-09-05 21:40:00,74.8,65.2,29.84,West,271,0.0,0.0,72,0.00,,,0.00,Wunderground v.1.15,2013-09-06 04:40:00,
2013-09-05 21:50:00,74.4,65.2,29.84,West,271,0.0,0.0,73,0.00,,,0.00,Wunderground v.1.15,2013-09-06 04:50:00,
2013-09-05 21:55:00,74.3,65.5,29.84,West,271,0.0,0.0,74,0.00,,,0.00,Wunderground v.1.15,2013-09-06 04:55:00,
2013-09-05 22:00:00,74.2,65.4,29.84,West,271,0.0,0.0,74,0.00,,,0.00,Wunderground v.1.15,2013-09-06 05:00:00,
2013-09-05 22:06:00,74.1,65.3,29.84,West,271,0.0,0.0,74,0.00,,,0.00,Wunderground v.1.15,2013-09-06 05:06:00,
2013-09-05 22:20:00,73.9,65.5,29.85,West,267,1.0,2.0,75,0.00,,,0.00,Wunderground v.1.15,2013-09-06 05:20:00,
2013-09-05 22:25:00,73.6,65.2,29.85,ESE,113,2.0,2.0,75,0.00,,,0.00,Wunderground v.1.15,2013-09-06 05:25:00,
2013-09-05 22:30:00,73.2,65.2,29.85,ESE,113,2.0,2.0,76,0.00,,,0.00,Wunderground v.1.15,2013-09-06 05:30:00,
2013-09-05 22:35:00,72.9,64.9,29.85,ESE,113,0.0,2.0,76,0.00,,,0.00,Wunderground v.1.15,2013-09-06 05:35:00,
2013-09-05 22:40:00,72.6,65.0,29.85,ESE,113,0.0,0.0,77,0.00,,,0.00,Wunderground v.1.15,2013-09-06 05:40:00,
2013-09-05 22:45:00,72.4,64.8,29.84,ESE,113,0.0,1.0,77,0.00,,,0.00,Wunderground v.1.15,2013-09-06 05:45:00,
2013-09-05 22:51:00,72.2,65.0,29.84,ESE,113,0.0,0.0,78,0.00,,,0.00,Wunderground v.1.15,2013-09-06 05:51:00,
2013-09-05 22:55:00,72.1,64.9,29.84,ESE,113,0.0,0.0,78,0.00,,,0.00,Wunderground v.1.15,2013-09-06 05:55:00,
2013-09-05 23:00:00,72.1,64.9,29.84,ESE,113,0.0,0.0,78,0.00,,,0.00,Wunderground v.1.15,2013-09-06 06:00:00,
2013-09-05 23:05:00,72.0,64.8,29.85,ESE,113,0.0,0.0,78,0.00,,,0.00,Wunderground v.1.15,2013-09-06 06:05:00,
2013-09-05 23:10:00,71.9,64.7,29.84,ESE,113,0.0,0.0,78,0.00,,,0.00,Wunderground v.1.15,2013-09-06 06:10:00,
2013-09-05 23:20:00,71.6,64.4,29.84,ESE,113,0.0,0.0,78,0.00,,,0.00,Wunderground v.1.15,2013-09-06 06:20:00,
2013-09-05 23:25:00,71.5,64.3,29.84,ESE,114,0.0,2.0,78,0.00,,,0.00,Wunderground v.1.15,2013-09-06 06:25:00,
2013-09-05 23:30:00,71.1,63.9,29.84,SSE,150,1.0,1.0,78,0.00,,,0.00,Wunderground v.1.15,2013-09-06 06:30:00,
2013-09-05 23:35:00,70.8,64.0,29.84,SSE,150,1.0,1.0,79,0.00,,,0.00,Wunderground v.1.15,2013-09-06 06:35:00,
2013-09-05 23:40:00,70.5,63.7,29.84,SSE,150,0.0,0.0,79,0.00,,,0.00,Wunderground v.1.15,2013-09-06 06:40:00,
2013-09-05 23:45:00,70.2,63.7,29.84,SSE,150,0.0,0.0,80,0.00,,,0.00,Wunderground v.1.15,2013-09-06 06:45:00,
2013-09-05 23:50:00,70.0,63.5,29.84,SSE,150,0.0,0.0,80,0.00,,,0.00,Wunderground v.1.15,2013-09-06 06:50:00,
2013-09-05 23:55:00,69.8,63.7,29.84,SSE,150,0.0,0.0,81,0.00,,,0.00,Wunderground v.1.15,2013-09-06 06:55:00,